Location: Waco, TX
(31.5480°N, 97.1670°W)
Time: 09:03:49
(UTC-05:00)

ISS - Pass Details

Date: 15 October 2019
Orbit: 411 x 421 km, 51.6° (Epoch: 18 October)

Event Time Altitude Azimuth Distance (km) Brightness Sun altitude
Rises 16:29:22 0° 335° (NNW) 2,346 0.0 28.5°
Reaches altitude 10° 16:32:53 10° 14° (NNE) 1,479 -1.3 27.8°
Maximum altitude 16:33:49 11° 31° (NNE) 1,425 -1.5 27.7°
Drops below altitude 10° 16:34:46 10° 47° (NE) 1,477 -1.4 27.5°
Sets 16:38:15 0° 87° (E) 2,334 -0.5 26.9°
